Regional Weather Roundup
Issued by NWS Grand Forks, ND

Home | Current Version | Previous Version | Graphics & Text | Print | Product List | Glossary On
Versions: 1 2 3 4 5 6 7 8 9 10 11 12 13 14 15 16 17 18 19 20 21 22 23 24 25 26 27 28 29 30 31 32 33 34 35 36 37 38 39 40 41 42 43 44 45 46 47 48 49 50
000
ASUS43 KFGF 130410
RWRFGF
PRAIRIE TO PINES  WEATHER ROUNDUP
NATIONAL WEATHER SERVICE EASTERN NORTH DAKOTA/GRAND FORKS ND
1100 PM CDT SAT JUL 12 2014

 **SATELLITE DATA USED TO AUGMENT SKY COVER AT AUTOMATED STATIONS**
 *****  WEATHER ACROSS EASTERN NORTH DAKOTA  *****

CITY           SKY/WX    TMP DP  RH WIND       PRES   REMARKS
GRAND FORKS    CLEAR     56  54  93 W5        29.95R
GRAND FRKS AFB NOT AVBL
GRAND FRKS NWS   N/A     57 N/A N/A NW5         N/A
DEVILS LAKE    CLEAR     61  55  82 W7        29.98R
FARGO          MOCLDY    64  55  72 N3        29.96R
WAHPETON ARPT  CLEAR     64  50  59 N12       29.96R
$$

 ***** WEATHER ACROSS CENTRAL AND WESTERN NORTH DAKOTA  *****

CITY           SKY/WX    TMP DP  RH WIND       PRES   REMARKS
BISMARCK       PTCLDY    69  54  58 W6        30.05R
MINOT          CLEAR     62  52  69 W8        30.04R
JAMESTOWN      PTCLDY    61  55  81 N6        30.01R
MINOT AFB      NOT AVBL
GARRISON         N/A     60  57  89 NW7       30.06R
WILLISTON      CLEAR     67  53  61 NW9       30.11R
DICKINSON      CLEAR     64  51  62 NW7       30.13R
HETTINGER      CLEAR     60  56  86 NW5       30.16R
$$

 *****  OTHER AIRPORT OBSERVATIONS IN OUR AREA  *****

CITY           SKY/WX    TMP DP  RH WIND       PRES   REMARKS
WALHALLA         N/A     55  55 100 W3          N/A
GRAFTON AIRPOR FAIR      57  57 100 NW6       29.95S
VALLEY CITY AR CLOUDY    63  59  88 NW5       29.99S
CANDO          FAIR      59  54  82 NW9       30.00R
CAVALIER APRT  FAIR      57  55  94 CALM      29.95S
GWINNER        CLEAR     70  57  64 W7        29.98S
SHEYENNE NWR     N/A     64  53  68 NE6       29.95S
ROLLA          FAIR      55  45  67 NW10      30.01S
 ***** THE ABOVE OBSERVATIONS ARE NON NWS ARE NOT QUALITY
       CONTROLLED AND MAY MIS-REPORT RAIN FOR SNOW...
$$

  *****  WEATHER ACROSS NORTHERN MINNESOTA  *****

CITY           SKY/WX    TMP DP  RH WIND       PRES   REMARKS
FLAG ISLAND    CLEAR     57  48  72 NW14      29.88S
WARROAD        CLEAR     52  48  87 W5        29.92F
ROSEAU         CLEAR     55  50  82 W5        29.93R
HALLOCK        CLEAR     57  55  94 NW3       29.94R
THF RVR FALLS  PTCLDY    57  55  94 NW9       29.95R
BAUDETTE       PTCLDY    56  47  71 NW12      29.91R
WASKISH        MOCLDY    59  54  82 NW10G18   29.91S
CROOKSTON      CLEAR     57  55  94 NW5       29.96R
$$
  *****  WEATHER ACROSS CENTRAL AND WEST MINNESOTA  *****

CITY           SKY/WX    TMP DP  RH WIND       PRES   REMARKS
FOSSTON        MOCLDY    55  54  94 NW7       29.95R
BEMIDJI        MOCLDY    57  55  91 W8        29.92S
PARK RAPIDS    CLOUDY    62  52  69 N7        29.93F
ELBOW LAKE     FAIR      66  61  82 W6        29.93S
WADENA         PTCLDY    63  52  67 N15       29.94R
DETROIT LAKES  PTCLDY    63  54  72 N3        29.97F
MOORHEAD       PTCLDY    63  59  88 CALM      29.96S
FERGUS FALLS   CLEAR     66  50  55 N9G16     29.95R
MORRIS MN      CLEAR     66  63  88 SW9       29.93F
STAPLES        PTCLDY    64  57  77 N20G31    29.93R
$$
  *****  WEATHER ELSEWHERE ACROSS MINNESOTA  *****

CITY           SKY/WX    TMP DP  RH WIND       PRES   REMARKS
DULUTH         PTCLDY    63  58  83 W9        29.85F
INTRNTL FALLS  MOCLDY    55  53  93 NW8       29.87R
ELY            PTCLDY    61  48  63 W8        29.85F
CLOQUET        CLEAR     64  57  77 SW6       29.87S
WHEATON        PTCLDY    68  61  77 W5        29.96S
BRAINERD       CLEAR     70  60  70 SW6       29.90F
HIBBING        CLOUDY    58  55  90 CALM      29.89R
ALEXANDRIA     MOCLDY    68  62  81 SW6       29.95S
SAINT CLOUD    CLEAR     65  60  84 S5        29.92F
MINNEAPOLIS    PTCLDY    70  65  84 SW6       29.94F
$$

  *****  WEATHER ACROSS SOUTH DAKOTA  *****

CITY           SKY/WX    TMP DP  RH WIND       PRES   REMARKS
SIOUX FALLS    PTCLDY    71  65  81 CALM      30.02F
BROOKINGS      NOT AVBL
WATERTOWN      MOCLDY    68  64  87 W6        30.02R
HURON          CLEAR     71  65  81 W6        30.02R
SISSETON         N/A     70  63  78 W7        29.95S
ABERDEEN       PTCLDY    67  63  87 W5        30.01R
MITCHELL       CLEAR     72  66  81 SW5       30.03S
PIERRE         CLEAR     71  62  73 SW6       30.06R
MOBRIDGE       PTCLDY    65  63  93 N5        30.04R
RAPID CITY     PTCLDY    66  63  90 NW6       30.19R
$$

  *****  SOME WEATHER IN NEARBY STATES *****

CITY           SKY/WX    TMP DP  RH WIND       PRES   REMARKS
GLASGOW MT     NOT AVBL
GREAT FALLS MT CLEAR     68  43  40 CALM      30.21R
CHEYENNE WY    PTCLDY    66  54  65 SE7       30.38R
SCOTTSBLUFF NE LGT RAIN  69  65  86 NE6       30.26R
OMAHA NE       PTCLDY    72  67  84 N7        30.00F
DES MOINES IA  PTCLDY    72  67  84 N7        29.98R
DAVENPORT IA     N/A     73  70  90 NW12      29.93R
CHICAGO IL     RAIN      79  73  82 SW12      29.85R
EAU CLAIRE WI  PTCLDY    65  64  97 W5        29.93R
LA CROSSE WI   CLEAR     64  62  93 CALM      29.93F FOG
$$

  *****  SOME NATIONAL WEATHER *****

CITY           SKY/WX    TMP DP  RH WIND       PRES   REMARKS
LA GUARDIA NY  MOCLDY    74  62  66 S9        30.13F
RALEIGH NC     PTCLDY    77  67  71 VRB6      30.16S
ATLANTA GA     PTCLDY    78  68  71 SE3       30.15S
NEW ORLEANS LA PTCLDY    83  74  74 CALM      30.09R
OKLAHOMA CITY  CLEAR     76  59  55 S6        30.06R
ALBUQUERQUE NM PTCLDY    79  46  31 SE13      30.19R
SALT LAKE CITY PTCLDY    84  58  40 NW7       30.13R
LOS ANGELES CA PTCLDY    68  61  78 SW7       29.94R
BOISE ID       CLEAR     90  39  16 CALM      30.04R
SEATTLE WA     CLEAR     80  54  40 N6        30.07S
$$

*** WEATHER ACROSS MANITOBA...SASKATCHEWAN AND ONTARIO ***
                ***ONTARIO***

CITY           SKY/WX    TMP DP  RH WIND       PRES   REMARKS
GERALDTON      MOCLDY    61  52  72 SW8       29.70F
THUNDER BAY    PTCLDY    61  55  82 W6        29.74F
SIOUX LOOKOUT  PTCLDY    54  50  87 NW7       29.79R
TORONTO        MOCLDY    73  61  64 S7        29.96F
BIG TROUT LK   LGT RAIN  52  48  87 W5        29.55S
PICKLE LAKE    NOT AVBL
DRYDEN         CLEAR     52  50  93 SW7       29.81S
KENORA         CLEAR     52  48  87 W7        29.87S
$$
                *** MANITOBA***

CITY           SKY/WX    TMP DP  RH WIND       PRES   REMARKS
BRANDON        PTCLDY    55  48  76 NW9       29.99R
DAUPHIN        CLEAR     55  45  67 W7        29.95R
ISLAND LAKE    LGT RAIN  50  46  87 W13G18    29.63F
PILOT MOUND      N/A     52  50  93 SW2         N/A
THE PAS        MOCLDY    57  46  67 NW16      29.91
THOMPSON       LGT RAIN  48  48 100 NW16G23   29.69S
WINNIPEG       PTCLDY    55  46  71 W7        29.92S
LYNN LAKE      LGT RAIN  50  46  87 N18G28    29.89S
CHURCHILL      LGT RAIN  43  41  93 N22       29.58S
GILLAM         PTCLDY    48  46  93 N15       29.57
$$
                ***SASKATCHEWAN***

CITY           SKY/WX    TMP DP  RH WIND       PRES   REMARKS
ESTEVAN        NOT AVBL
KINDERSLEY     NOT AVBL
LLOYDMINSTER   CLEAR     63  50  63 NW6       30.17R
PRINCE ALBERT  CLEAR     55  43  62 W9        30.09S
REGINA         PTCLDY    55  48  76 NW6       30.11R
YORKTON        CLEAR     55  43  62 W8        30.03R
N. BATTLEFORD  CLEAR     54  45  71 N3        30.17S HAZE
LA RONGE       PTCLDY    59  39  47 NW10      30.08R
SASKATOON      PTCLDY    55  46  71 NW8       30.15R
SWIFT CURRENT  CLEAR     61  54  77 N8        30.17R
$$
NOTE: THESE ARE AUTOMATED STATIONS WITH LIMITED QUALITY CONTROL
      "FAIR" INDICATES FEW OR NO CLOUDS BELOW 12,000 FEET WITH NO
      SIGNIFICANT WEATHER AND/OR OBSTRUCTIONS TO VISIBILITY.
      SKY/WX - SKY CONDITION AND SIGNIFICANT WEATHER.
      TMP - AIR TEMPERATURE.    DP   - DEWPOINT TEMPERATURE.
      RH  - RELATIVE HUMIDITY.  PRES - PRESSURE.
      HX  - HEAT INDEX.         WCI  - WIND CHILL INDEX.
$


USA.gov is the U.S. government's official web portal to all federal, state and local government web resources and services.